Weather in Turangi

New Zealand     38°59′22″S   175°48′39″E
В апреле 2022 года жителям России запретили посещать сайт meteo.paraplan.net по решению Генеральной прокуратуры. Аудитория сайта уменьшилась в 10 раз. Владельцы сайта не видят смысла в поддержке погодного сервера в таких условиях. Сайт будет закрыт в октябре.
temp.,
°C
wind,
m/s
gust,
m/s
humid.,
%
clouds,
%
prec.,
mm/h
press.,
hPa
HPBL,
m
24 september, sat
sat2400:00+8sw128792 0.0 101880
04:00+8ssw139470 0.0 1018229
07:00+7s11971 0.0 102025
10:00+13se245810 0.0 10211137
13:00+16e234648 0.0 10211657
16:00+13nnw2359100 0.0 1021668
19:00+11n137360 0.0 1023104
22:00+6s1188100 0.0 102742
26 september, mon
mon2601:00+5sse1187100 0.0 102834
04:00+4sse1184100 0.0 102835
07:00+3sse118476 0.0 103030
10:00+9nne1250100 0.0 1029493
13:00+13ne2538100 0.0 10281033
16:00+14ne253543 0.0 10261362
19:00+9ese116460 0.0 102813
22:00+5sse118253 0.0 103016
27 september, tue
tue2701:00+3sse11935 0.0 103215
04:00+2s119859 0.0 103218
07:00+2s119869 0.0 103319
10:00+9nne1262100 0.0 1032536
13:00+13nne2241100 0.0 1029990
16:00+13ne223958 0.0 10271143
19:00+9ese116715 0.0 102810
22:00+5se118718 0.0 103121
28 september, wed
wed2801:00+5e119763 0.0 103154
04:00+6ne1193100 0.0 103080
07:00+6nne018371 0.1 103121
10:00+10nne125836 0.0 10301010
13:00+14nne23455 0.0 10271515
16:00+15n234297 0.0 10241703
19:00+9nnw117262 0.0 102523
22:00+8sw117998 0.0 102752
29 september, thu
thu2901:00+7ne1189100 0.0 102650
04:00+7ne0195100 0.0 1025121
07:00+7e1198100 0.0 1025119
10:00+9nne1285100 0.1 1024498
13:00+8ene0197100 1.3 1023182
16:00+9nnw1298100 2.0 1021237
19:00+8n01100100 4.1 102168
22:00+8ene01100100 1.4 102095